Location: Newark
(52.3500°N, 175.9667°E)
Time: 20:48:41
(UTC+00:00)

Transit 4A - Pass Details

Date: 24 April 2021
Orbit: 871 x 974 km, 66.8° (Epoch: 16 May)

Event Time Altitude Azimuth Distance (km) Brightness Sun altitude
Rises 20:46:29 0° 313° (NW) 3,508 10.4 33.2°
Reaches altitude 10° 20:49:47 10° 295° (WNW) 2,549 9.8 33.6°
Maximum altitude 20:53:31 18° 255° (WSW) 2,039 9.5 34.1°
Drops below altitude 10° 20:57:13 10° 215° (SW) 2,517 10.2 34.6°
Sets 21:00:29 0° 197° (SSW) 3,446 11.0 35.1°
